Powrót do katalogu

IONOSFERA-M 02

AktywnyNaukaSSO
NORAD 61736·PAYLOAD·🇷🇺 Russia

Wystrzelony Nov 4, 2024 z Vostochny Cosmodrome

Loading…

Następne Przeloty (najbliższe 24 godziny)

TLE

ŚwieżeSource: Space-Track

Epoka: Sep 14, 2026, 21:25 UTC

1 61736U 24199B   26257.89298798  .00000033  00000-0  34256-4 0  9990
2 61736  98.7016 129.9684 0001960  74.5848 285.5546 14.22771547143583

Śledź IONOSFERA-M 02 w czasie rzeczywistym z AllMySat

Download on the App Store